Regional Weather Roundup
Issued by NWS

Home | Current Version | Previous Version | Text Only | Print | Product List | Glossary On
Versions: 1 2 3 4 5 6 7 8 9 10 11 12 13 14 15 16 17 18 19 20 21 22 23 24 25 26 27 28 29 30 31 32 33 34 35 36 37 38 39 40 41 42 43 44 45 46 47 48 49 50
000
ASUS43 KMPX 251910
RWRMN
WEATHER ROUNDUP FOR MINNESOTA
NATIONAL WEATHER SERVICE TWIN CITIES/CHANHASSEN MN
100 PM CST TUE NOV 25 2014


NOTE: "FAIR" INDICATES FEW OR NO CLOUDS BELOW 12,000 FEET WITH NO
SIGNIFICANT WEATHER AND/OR OBSTRUCTIONS TO VISIBILITY. N/A MEANS
CURRENT SKY AND/OR WEATHER CONDITIONS ARE NOT AVAILABLE.

MNZ060>063-068>070-252000-
   Twin Cities Metro

CITY           SKY/WX    TMP DP  RH WIND       PRES   REMARKS
TWIN CITIES    CLOUDY    19  11  70 S3        30.05F
ST PAUL        CLOUDY    21  12  68 S3        30.07F
CRYSTAL        CLOUDY    20  11  68 S5        30.03F WCI  13
LAKEVILLE      CLOUDY    19  12  73 SW3       30.04F
EDEN PRAIRIE   CLOUDY    20  12  71 SW7       30.04F WCI  11
SOUTH ST PAUL  CLOUDY    22  12  66 CALM      30.05F
LAKE ELMO      CLOUDY    21  14  73 CALM      30.05F
$$
MNZ001>005-007-008-013>017-022>024-027-028-252000-
   Northwest Minnesota

CITY           SKY/WX    TMP DP  RH WIND       PRES   REMARKS
BEMIDJI        CLOUDY    19   9  65 CALM      29.92F
HALLOCK          N/A     18  10  73 CALM      29.95S
ROSEAU         PTSUNNY   18  10  73 CALM      29.93S
WARROAD        PTSUNNY   16  10  79 CALM      29.93S
THIEF RVR FALL CLOUDY    19  12  73 CALM      29.94F
CROOKSTON      CLOUDY    21  16  79 CALM      29.95F
FOSSTON        PTSUNNY   19  10  68 S5        29.93S WCI  13
DETROIT LAKES  CLOUDY    23  18  80 SE8       29.93F WCI  14
MOORHEAD       CLOUDY    25  19  80 S6        29.95S WCI  18
PARK RAPIDS    CLOUDY    20  10  65 S7        29.92F WCI  11
MAHNOMEN       CLOUDY    22  17  78 S6        29.92F WCI  15
$$
MNZ006-009>011-018-025>026-252000-
   North Central Minnesota

CITY           SKY/WX    TMP DP  RH WIND       PRES   REMARKS
BAUDETTE       PTSUNNY   15   9  76 E3        29.92F
FLAG ISLAND    CLOUDY    10   5  79 CALM      29.93S
INTL FALLS     CLOUDY    16   2  54 SW7       29.94S WCI   6
WASKISH        PTSUNNY   18  10  73 CALM      29.94S
BIG FORK       CLOUDY    19   3  49 SW3       29.94S
LONGVILLE      CLOUDY    18   7  62 CALM      29.96S
GRAND RAPIDS   CLOUDY    16   3  57 S5        29.94S WCI   9
CRANE LAKE     SUNNY     16   3  57 SW5       29.97S WCI   9
ORR            SUNNY     18   3  53 CALM      29.91S
COOK           SUNNY     18   5  57 CALM      29.94F
WALKER         CLOUDY    19   8  62 CALM      29.93F
$$
MNZ012-019>021-037-252000-
   Northeast Minnesota

CITY           SKY/WX    TMP DP  RH WIND       PRES   REMARKS
DULUTH         MOSUNNY   20   9  62 SW6       29.94F WCI  12
ELY            MOSUNNY   18   9  68 W5        29.92F WCI  11
HIBBING        MOSUNNY   21   4  47 CALM      29.94F
EVELETH        SUNNY     21   7  53 W3        29.95S
DULUTH HARBOR  SUNNY     23  12  63 CALM      30.01F
TWO HARBORS    SUNNY     27  12  54 SW5       29.93F WCI  21
SILVER BAY     SUNNY     27   7  43 S7        29.92F WCI  19
GRAND MARAIS     N/A     24  12  60 SW8       29.97S WCI  15
G MARAIS ARPRT MOSUNNY   18   5  57 W5        29.88F WCI  11
$$
MNZ029>031-032-039>041-046>048-054>057-064-252000-
   West Central Minnesota

CITY           SKY/WX    TMP DP  RH WIND       PRES   REMARKS
FERGUS FALLS   CLOUDY    21  10  63 S9        29.97F WCI  11
WHEATON        CLOUDY    25  18  74 SE9       29.96F WCI  15
MORRIS           N/A     21  14  73 SE9       29.96F WCI  11
ALEXANDRIA     CLOUDY    20  10  65 SE9       29.96S WCI   9
ELBOW LAKE       N/A     20  13  73 SE9       29.94F WCI  10
WADENA         CLOUDY    19  10  68 SE5       29.94F WCI  13
GLENWOOD       MOSUNNY   19   9  63 SE5       29.97S WCI  13
APPLETON       MOSUNNY   27  16  63 S5        29.97F WCI  21
BENSON         CLOUDY    21  12  68 S7        29.98S WCI  13
ORTONVILLE     CLOUDY    27  18  69 S5        29.95S WCI  21
MADISON        PTSUNNY   32  21  64 SE7       29.96F WCI  26
WILLMAR        FAIR      23  12  63 SE8       29.99F WCI  14
$$
MNZ033>034-036-042>043-049>051-058-059-252000-
   Central Minnesota

CITY           SKY/WX    TMP DP  RH WIND       PRES   REMARKS
ST CLOUD       CLOUDY    18  10  71 SE7       30.01F WCI   9
SAUK CENTRE    CLOUDY    17   9  70 SE7       29.98F WCI   8
PAYNESVILLE    CLOUDY    16   7  67 E7        29.99F WCI   6
AITKIN         CLOUDY    18   9  68 SE3       29.96F
PINE RIVER     CLOUDY    19   9  63 S3        29.99S
BRAINERD       CLOUDY    15   8  73 S7        29.98F WCI   5
STAPLES        CLOUDY    18   9  68 SE6       29.96F WCI   9
LONG PRAIRIE   CLOUDY    19   7  58 S6        29.98S WCI  11
LITTLE FALLS   CLOUDY    19   7  58 SE5       30.00F WCI  13
LITCHFIELD     CLOUDY    21  12  68 CALM      30.01F
BUFFALO        CLOUDY    19  10  69 S3        30.04F
MAPLE LAKE     CLOUDY    19  13  74 S5        30.03F WCI  13
$$
MNZ037-044-045-052-053-252000-
   East Central Minnesota

CITY           SKY/WX    TMP DP  RH WIND       PRES   REMARKS
PRINCETON      CLOUDY    18  10  73 CALM      30.02F
MORA           CLOUDY    18  10  73 S3        30.03F
CAMBRIDGE      CLOUDY    18   9  68 CALM      30.02F
RUSH CITY      CLOUDY    16  10  78 S3        30.03F
MOOSE LAKE     CLOUDY    19  10  68 SW5       29.98F WCI  13
HINCKLEY       CLOUDY    18  12  79 CALM      30.01F
CLOQUET        CLOUDY    19   9  63 S7        29.96F WCI  10
MCGREGOR       CLOUDY    18  10  73 SW5       29.98F WCI  11
$$
MNZ071>073-080-081-089-090-097-098-252000-
   Southwest Minnesota

CITY           SKY/WX    TMP DP  RH WIND       PRES   REMARKS
MONTEVIDEO     CLOUDY    27  16  63 S7        29.99S WCI  19
GRANITE FALLS  PTSUNNY   28  16  63 SE12      30.00F WCI  17
CANBY          CLOUDY    33  21  61 S6        29.96F WCI  27
MARSHALL       PTSUNNY   34  16  47 S10       29.96F WCI  26
REDWOOD FALLS  CLOUDY    28  11  48 SE13      29.99F WCI  17
OLIVIA         MOSUNNY   27  14  59 SE8       29.99F WCI  18
PIPESTONE      MOSUNNY   30  18  59 S9        29.93F WCI  22
WINDOM         PTSUNNY   28  12  50 S9        29.99F WCI  20
WORTHINGTON    MOSUNNY   30  14  51 S14       29.98F WCI  20
JACKSON        CLOUDY    32  12  43 S9        30.00F WCI  24
TRACY          PTSUNNY   32  17  53 SW8       29.96F WCI  25
SLAYTON        MOSUNNY   30  14  51 S12       29.95F WCI  21
$$
MNZ065>067-074>077-082>085-091>093-252000-
   South Central Minnesota

CITY           SKY/WX    TMP DP  RH WIND       PRES   REMARKS
MANKATO        CLOUDY    25   7  46 SW5       30.04F WCI  19
NEW ULM        PTSUNNY   25   9  50 S5        30.02F WCI  19
ST JAMES       CLOUDY    28   9  43 S7        30.03F WCI  21
FAIRMONT       PTSUNNY   28   5  37 S7        30.03F WCI  21
GLENCOE        CLOUDY    23  13  66 S5        30.03F WCI  17
FARIBAULT      CLOUDY    23  14  68 S3        30.05S
OWATONNA       PTSUNNY   21  12  68 SW6       30.04S WCI  14
WASECA         CLOUDY    25  10  54 SW7       30.05F WCI  17
ALBERT LEA     SUNNY     25  12  58 SW5       30.05S WCI  19
$$
MNZ078>079-086>088-094>096-252000-
   Southeast Minnesota

CITY           SKY/WX    TMP DP  RH WIND       PRES   REMARKS
ROCHESTER      SUNNY     21  13  71 W8        30.05S WCI  11
RED WING       CLOUDY    23  12  63 CALM      30.06F
STANTON        CLOUDY    22  13  68 SW3       30.04F
DODGE CENTER   SUNNY     21  16  79 SW6       30.03F WCI  14
WINONA         SUNNY     23  14  68 NW3       30.09S
AUSTIN         SUNNY     21  14  73 SW3       30.05F
PRESTON        SUNNY     19  12  75 W7        30.06S WCI  10
$$
ABBREVIATIONS USED IN REMARKS
   TC - TEMPERATURES IN CELSIUS
  WCI - WIND CHILL INDEX
   HX - HEAT INDEX
  VSB - VISIBILITY
$$


USA.gov is the U.S. government's official web portal to all federal, state and local government web resources and services.